Regional Weather Roundup
Issued by NWS Green Bay, WI

Home | Current Version | Previous Version | Text Only | Print | Product List | Glossary On
Versions: 1 2 3 4 5 6 7 8 9 10 11 12 13 14 15 16 17 18 19 20 21 22 23 24 25 26 27 28 29 30 31 32 33 34 35 36 37 38 39 40 41 42 43 44 45 46 47 48 49 50
000
ASUS43 KGRB 280800
RWRGRB

NORTH-CENTRAL AND NORTHEAST WISCONSIN REGIONAL WEATHER ROUNDUP
NATIONAL WEATHER SERVICE GREEN BAY WI
300 AM CDT WED JUN 28 2017

WIZ005-009-010>012-018-019-280900-
NORTH CENTRAL WISCONSIN

CITY           SKY/WX    TMP DP  RH WIND       PRES   REMARKS
IRONWOOD       CLEAR     58  47  66 S6        29.81F
MANITOWISH WTR NOT AVBL
ARBOR VITAE    NOT AVBL
EAGLE RIVER    NOT AVBL
LAND O LAKES   NOT AVBL
RHINELANDER    CLEAR     52  47  83 CALM      29.88F
PHILLIPS       NOT AVBL
ANTIGO         NOT AVBL
TOMAHAWK       NOT AVBL
MERRILL        PTCLDY    49  48  97 CALM      29.88F
$$

WIZ013-073-280900-
NORTHEAST WISCONSIN

CITY           SKY/WX    TMP DP  RH WIND       PRES   REMARKS
IRON MOUNTAIN  CLOUDY    56  47  71 SE3       29.89F
MARINETTE      CLOUDY    61  53  75 SW6       29.92F
$$

WIZ017-030-035>037-045-280900-
CENTRAL WISCONSIN

CITY           SKY/WX    TMP DP  RH WIND       PRES   REMARKS
MEDFORD        NOT AVBL
WAUSAU           N/A    N/A N/A N/A MISG      29.88F
MOSINEE        NOT AVBL
MARSHFIELD     MOCLDY    53  47  79 S8        29.87F
WISC RAPIDS    PTCLDY    55  47  74 S3        29.90F
STEVENS POINT  NOT AVBL
WAUPACA        NOT AVBL
SHAWANO        NOT AVBL
CLINTONVILLE   NOT AVBL
WAUTOMA        PTCLDY    48  47  96 CALM      29.92F
$$

WIZ038-039-048-051-280900-
FOX VALLEY

CITY           SKY/WX    TMP DP  RH WIND       PRES   REMARKS
NWS GREEN BAY  CLEAR     57  53  86 S6        29.92F
APPLETON       NOT AVBL
OSHKOSH        CLEAR     55  49  80 S7        29.93F
FOND DU LAC    CLEAR     57  47  69 S6        29.94F
$$

WIZ022-050-052-280900-
EAST CENTRAL WISCONSIN

CITY           SKY/WX    TMP DP  RH WIND       PRES   REMARKS
EPHRAIM        NOT AVBL
WASHINGTON ISL NOT AVBL
STURGEON BAY     N/A     59  49  69 S8        29.94F
MANITOWOC      NOT AVBL
SHEBOYGAN      CLEAR     52  50  93 S5        29.95F
$$

LMZ563-521-522-541>543-280900-
LAKESHORE

STATION/POSITION TIME  TEMP    WIND        PRES    VSBY  WAVE
                       AIR SEA DIR/SP/G                  HT/PER
                 (UTC) (F)     (DEG/KT/KT) (MB)    (MI)  (FT/S)
SHEBOYGAN LKSHOR 0700   60     210/  7/  8 1015.5F
KEWAUNEE LKSHORE 0730   54     180/  7/  7 1014.1F
NORTHPORT PIER   0740   61     170/  4/  8 1013.5F
N MID LAKE BUOY  0650   57 55  190/ 12/ 14 1014.7F         3/ 5
S GREEN BAY BUOY 0730   65     210/ 14/ 17 1013.6F
SISTER BAY LKSHO 0723   63     180/ 10/ 11   N/A
CHAMBERS ISLAND  0740   64     180/  4/  8 1013.2F
MENOMINEE LKSHOR 0730          200/  8/ 12 1012.7F
$$




USA.gov is the U.S. government's official web portal to all federal, state and local government web resources and services.